When you browse on this site, cookies collect data to enhance your experience and personalize the content and advertising you see.
Visit our Privacy Policy to learn more. By continuing to use the site, you agree to this use of cookies and data.
  • In Germany
  • List of Countries
  • For 7 days
  • Water Temperature
  • Weather Map
  • Weather Widgets
  • user-avatar
    Login

    Hourly Weather Nikolskoe

    Today, 15 October, Tuesday

    Time Temperature Precipitation Wind Pressure Humidity
    00:00 +5°C° 0 mm 5 mps 730 mmHg 81%
    01:00 +3°C° 0 mm 5 mps 730 mmHg 82%
    02:00 +3°C° 0 mm 5 mps 730 mmHg 82%
    03:00 +3°C° 0 mm 5 mps 731 mmHg 81%
    04:00 +4°C° 0 mm 4 mps 731 mmHg 84%
    05:00 +4°C° 0 mm 4 mps 731 mmHg 83%
    06:00 +4°C° 0 mm 4 mps 731 mmHg 82%
    07:00 +4°C° 0 mm 4 mps 731 mmHg 81%
    08:00 +4°C° 0 mm 4 mps 731 mmHg 79%
    09:00 +4°C° 0 mm 4 mps 731 mmHg 78%
    10:00 +5°C° 0 mm 4 mps 732 mmHg 77%
    11:00 +5°C° 0 mm 3 mps 731 mmHg 74%
    12:00 +7°C° 0 mm 3 mps 731 mmHg 72%
    13:00 +7°C° 0 mm 3 mps 731 mmHg 69%
    14:00 +7°C° 0 mm 3 mps 731 mmHg 71%
    15:00 +7°C° 0 mm 2 mps 731 mmHg 73%
    16:00 +6°C° 0 mm 2 mps 730 mmHg 75%
    17:00 +6°C° 0 mm 2 mps 730 mmHg 79%
    18:00 +5°C° 0 mm 2 mps 730 mmHg 82%
    19:00 +4°C° 0 mm 2 mps 730 mmHg 85%
    20:00 +4°C° 0 mm 2 mps 730 mmHg 87%
    21:00 +4°C° 0 mm 2 mps 730 mmHg 89%
    22:00 +3°C° 0 mm 2 mps 730 mmHg 90%
    23:00 +3°C° 0 mm 2 mps 731 mmHg 90%

    Tomorrow, 16 October, Wednesday

    Time Temperature Precipitation Wind Pressure Humidity
    00:00 +2°C° 0 mm 3 mps 731 mmHg 90%
    01:00 +1°C° 0 mm 3 mps 731 mmHg 90%
    02:00 +1°C° 0 mm 3 mps 731 mmHg 88%
    03:00 +1°C° 0 mm 3 mps 732 mmHg 87%
    04:00 +1°C° 0 mm 3 mps 732 mmHg 86%
    05:00 0°C° 0 mm 4 mps 733 mmHg 83%
    06:00 0°C° 0 mm 4 mps 733 mmHg 81%
    07:00 0°C° 0 mm 5 mps 733 mmHg 79%
    08:00 0°C° 0 mm 5 mps 734 mmHg 80%
    09:00 0°C° 0 mm 5 mps 734 mmHg 81%
    10:00 +1°C° 0 mm 5 mps 735 mmHg 82%
    11:00 +1°C° 0 mm 5 mps 735 mmHg 81%
    12:00 +1°C° 0 mm 5 mps 735 mmHg 80%
    13:00 +1°C° 0 mm 5 mps 736 mmHg 79%
    14:00 +1°C° 0 mm 5 mps 736 mmHg 79%
    15:00 +1°C° 0 mm 5 mps 737 mmHg 79%
    16:00 +1°C° 0 mm 5 mps 737 mmHg 78%
    17:00 0°C° 0 mm 5 mps 738 mmHg 79%
    18:00 -1°C° 0 mm 5 mps 738 mmHg 80%
    19:00 -1°C° 0 mm 4 mps 739 mmHg 81%
    20:00 -1°C° 0 mm 4 mps 739 mmHg 82%
    21:00 -2°C° 0 mm 4 mps 740 mmHg 83%
    22:00 -2°C° 0 mm 4 mps 740 mmHg 84%
    23:00 -2°C° 0 mm 4 mps 740 mmHg 84%

    Day after tomorrow, 17 October, Thursday

    Time Temperature Precipitation Wind Pressure Humidity
    00:00 -2°C° 0 mm 4 mps 741 mmHg 83%
    01:00 -2°C° 0 mm 4 mps 741 mmHg 83%
    02:00 -2°C° 0 mm 4 mps 742 mmHg 82%
    03:00 -2°C° 0 mm 4 mps 742 mmHg 81%
    04:00 -2°C° 0 mm 4 mps 742 mmHg 80%
    05:00 -2°C° 0 mm 4 mps 743 mmHg 80%
    06:00 -2°C° 0 mm 4 mps 743 mmHg 80%
    07:00 -2°C° 0 mm 4 mps 743 mmHg 80%
    08:00 -2°C° 0 mm 4 mps 743 mmHg 76%
    09:00 -1°C° 0 mm 4 mps 744 mmHg 72%
    10:00 -1°C° 0 mm 4 mps 744 mmHg 68%
    11:00 -1°C° 0 mm 4 mps 744 mmHg 68%
    12:00 0°C° 0 mm 4 mps 744 mmHg 67%
    13:00 0°C° 0 mm 4 mps 743 mmHg 67%
    14:00 +1°C° 0 mm 3 mps 743 mmHg 68%
    15:00 0°C° 0 mm 3 mps 743 mmHg 69%
    16:00 0°C° 0 mm 3 mps 743 mmHg 71%
    17:00 +1°C° 0.1 mm 2 mps 743 mmHg 79%
    18:00 -1°C° 0.1 mm 2 mps 742 mmHg 87%
    19:00 -1°C° 0.1 mm 2 mps 741 mmHg 95%
    20:00 -1°C° 0.6 mm 2 mps 741 mmHg 95%
    21:00 -1°C° 0.6 mm 3 mps 740 mmHg 96%
    22:00 -1°C° 0.6 mm 3 mps 739 mmHg 97%
    23:00 -1°C° 0.7 mm 3 mps 739 mmHg 97%

    18 October, Friday

    Time Temperature Precipitation Wind Pressure Humidity
    00:00 -1°C° 0.7 mm 3 mps 738 mmHg 97%
    01:00 -1°C° 0.7 mm 3 mps 737 mmHg 97%
    02:00 -1°C° 0.8 mm 3 mps 736 mmHg 97%
    03:00 -1°C° 0.8 mm 3 mps 735 mmHg 98%
    04:00 -1°C° 0.8 mm 3 mps 734 mmHg 98%
    05:00 0°C° 0.7 mm 3 mps 733 mmHg 98%
    06:00 +1°C° 0.7 mm 2 mps 733 mmHg 98%
    07:00 +2°C° 0.7 mm 2 mps 732 mmHg 98%
    08:00 +3°C° 0.3 mm 2 mps 732 mmHg 96%
    09:00 +2°C° 0.3 mm 3 mps 732 mmHg 94%
    10:00 +3°C° 0.3 mm 3 mps 732 mmHg 91%
    11:00 +1°C° 0.4 mm 5 mps 733 mmHg 93%
    12:00 -1°C° 0.4 mm 6 mps 734 mmHg 94%
    13:00 -3°C° 0.4 mm 7 mps 735 mmHg 96%
    14:00 -3°C° 0.2 mm 6 mps 736 mmHg 93%
    15:00 -3°C° 0.2 mm 6 mps 738 mmHg 91%
    16:00 -3°C° 0.2 mm 6 mps 739 mmHg 89%
    17:00 -4°C° 0.1 mm 6 mps 740 mmHg 89%
    18:00 -4°C° 0.1 mm 5 mps 741 mmHg 88%
    19:00 -5°C° 0.1 mm 5 mps 742 mmHg 88%
    20:00 -5°C° 0 mm 4 mps 743 mmHg 89%
    21:00 -5°C° 0 mm 4 mps 744 mmHg 90%
    22:00 -6°C° 0 mm 3 mps 745 mmHg 91%
    23:00 -7°C° 0 mm 3 mps 745 mmHg 92%

    19 October, Saturday

    Time Temperature Precipitation Wind Pressure Humidity
    00:00 -7°C° 0 mm 3 mps 746 mmHg 93%
    01:00 -7°C° 0 mm 2 mps 746 mmHg 94%
    02:00 -7°C° 0 mm 2 mps 747 mmHg 94%
    03:00 -8°C° 0 mm 2 mps 747 mmHg 94%
    04:00 -8°C° 0 mm 2 mps 748 mmHg 95%
    05:00 -8°C° 0 mm 2 mps 748 mmHg 94%
    06:00 -8°C° 0 mm 2 mps 749 mmHg 94%
    07:00 -7°C° 0 mm 1 mps 749 mmHg 93%
    08:00 -6°C° 0 mm 1 mps 750 mmHg 87%
    09:00 -3°C° 0 mm 1 mps 750 mmHg 80%
    10:00 -2°C° 0 mm 1 mps 750 mmHg 74%
    11:00 -1°C° 0 mm 1 mps 751 mmHg 71%
    12:00 0°C° 0 mm 1 mps 751 mmHg 68%
    13:00 0°C° 0 mm 0 mps 751 mmHg 65%
    14:00 -1°C° 0 mm 0 mps 751 mmHg 68%
    15:00 -1°C° 0 mm 0 mps 751 mmHg 71%
    16:00 -2°C° 0 mm 0 mps 751 mmHg 74%
    17:00 -1°C° 0 mm 1 mps 751 mmHg 77%
    18:00 -2°C° 0 mm 1 mps 751 mmHg 81%
    19:00 -3°C° 0 mm 1 mps 751 mmHg 84%
    20:00 -3°C° 0 mm 1 mps 751 mmHg 84%
    21:00 -3°C° 0 mm 1 mps 751 mmHg 85%
    22:00 -5°C° 0 mm 2 mps 751 mmHg 86%
    23:00 -5°C° 0 mm 2 mps 751 mmHg 86%

    20 October, Sunday

    Time Temperature Precipitation Wind Pressure Humidity
    00:00 -6°C° 0 mm 2 mps 751 mmHg 86%
    01:00 -6°C° 0 mm 2 mps 751 mmHg 86%
    02:00 -6°C° 0 mm 2 mps 751 mmHg 85%
    03:00 -6°C° 0 mm 2 mps 751 mmHg 85%
    04:00 -6°C° 0 mm 2 mps 751 mmHg 85%
    05:00 -5°C° 0 mm 2 mps 751 mmHg 85%
    06:00 -5°C° 0 mm 2 mps 751 mmHg 86%
    07:00 -5°C° 0 mm 2 mps 751 mmHg 86%
    08:00 -4°C° 0 mm 2 mps 751 mmHg 82%
    09:00 -2°C° 0 mm 3 mps 751 mmHg 77%
    10:00 0°C° 0 mm 3 mps 751 mmHg 73%
    11:00 0°C° 0 mm 3 mps 751 mmHg 71%
    12:00 +1°C° 0 mm 3 mps 750 mmHg 70%
    13:00 +1°C° 0 mm 3 mps 750 mmHg 69%
    14:00 +1°C° 0 mm 3 mps 750 mmHg 72%
    15:00 0°C° 0 mm 3 mps 750 mmHg 74%
    16:00 -1°C° 0 mm 2 mps 750 mmHg 77%
    17:00 -2°C° 0 mm 2 mps 750 mmHg 79%
    18:00 -3°C° 0 mm 2 mps 750 mmHg 81%
    19:00 -4°C° 0 mm 2 mps 750 mmHg 82%
    20:00 -4°C° 0 mm 2 mps 750 mmHg 82%
    21:00 -4°C° 0 mm 2 mps 750 mmHg 81%
    22:00 -4°C° 0 mm 2 mps 750 mmHg 81%
    23:00 -4°C° 0 mm 2 mps 749 mmHg 81%
    Show more